EDDKEDLP

Guest
Details From EDDK - Koln Bonn
To EDLP - Paderborn Lippstadt
Flight Number -
Tags Generated
Created
Modified
Stats Distance 71 nm / 132 km
Max Altitude 0 ft / 0 m
Waypoints 2
Social Downloads 3
Likes 0
Share VATSIM

Download

Looking for another format? Having issues loading an existing format? Contact us
Advertisement - Login to hide

Notes

Generated

Route

EDDK EDLP

ID Type Via Altitude Latitude Longitude Leg Dist Tot Dist Heading (true) Name
O EDDK APT - 0 ft / 0 m 50.87084˚ 7.12086˚ - 0 nm - -
O EDLP APT - 0 ft / 0 m 51.60888˚ 8.60309˚ 71 nm 71 nm 51° / 52° -

Altitude Profile

Advertisement - Login to hide

EDDK

Details ICAO EDDK (CGN)
Name Koln Bonn
Region Germany - Civil
Timezone Europe/Berlin (UTC+2.0)
Stats Elevation 302 ft / 92 m (AMSL)
Location 50.865801° 7.138903°
Runways 3
Magnetic Variation 1.987° E

METAR

EDDK 212020Z 09004KT 050V120 CAVOK 21/09 Q1012 NOSIG

Decode

TAF

TAF EDDK 211700Z 2118/2224 12008KT CAVOK BECMG 2118/2120 12003KT BECMG 2211/2215 06005KT PROB30 TEMPO 2214/2220 06010KT -TSRA BKN040CB

Decode

Departure Runways

ID Width Length Bearing (true) Bearing (mag) Surface Threshold Offset Overrun Length
06 148 ft / 45 m 8,047 ft / 2,453 m 64.33° 62.34° Concrete 0 ft / 0 m 197 ft / 60 m
14L 197 ft / 60 m 12,497 ft / 3,809 m 137.55° 135.56° Asphalt 0 ft / 0 m 197 ft / 60 m
14R 148 ft / 45 m 6,102 ft / 1,860 m 137.54° 135.55° Asphalt 0 ft / 0 m 197 ft / 60 m
24 148 ft / 45 m 8,047 ft / 2,453 m 244.36° 242.37° Concrete 0 ft / 0 m 197 ft / 60 m
32L 148 ft / 45 m 6,102 ft / 1,860 m 317.56° 315.57° Asphalt 0 ft / 0 m 197 ft / 60 m
32R 197 ft / 60 m 12,497 ft / 3,809 m 317.58° 315.59° Asphalt 0 ft / 0 m 197 ft / 60 m

EDLP

Details ICAO EDLP (PAD)
Name Paderborn Lippstadt
Region Germany - Civil
Timezone Europe/Berlin (UTC+2.0)
Stats Elevation 699 ft / 213 m (AMSL)
Location 51.614166° 8.616336°
Runways 1
Magnetic Variation 2.416° E

METAR

EDLP 212020Z 12005KT CAVOK 17/07 Q1014

Decode

TAF

TAF EDLP 211700Z 2118/2218 10007KT CAVOK

Decode

Destination Runways

ID Width Length Bearing (true) Bearing (mag) Surface Threshold Offset Overrun Length
06 148 ft / 45 m 7,136 ft / 2,175 m 57.28° 54.86° Asphalt 0 ft / 0 m 1,066 ft / 325 m
24 148 ft / 45 m 7,136 ft / 2,175 m 237.30° 234.88° Asphalt 0 ft / 0 m 397 ft / 121 m

Approach Navaids

Runway Type Ident Frequency Range Bearing (true) Bearing (mag) Slope Elevation
06 Localiser IPLE 111.70 MHz 18 nm / 33 km 57.13° 54.72° - 674 ft / 205 m (AMSL)
06 Glidescope IPLE 111.70 MHz 10 nm / 19 km 57.29° 54.87° 3.00° 699 ft / 213 m (AMSL)
24 Localiser IPLW 108.55 MHz 18 nm / 33 km 236.80° 234.38° - 699 ft / 213 m (AMSL)
24 Glidescope IPLW 108.55 MHz 10 nm / 19 km 237.29° 234.87° 3.00° 674 ft / 205 m (AMSL)

Popular Alternatives